This is the latest recevied weather packets stored in our database for station/object K3CHZ. If no packets are shown the sender has not sent any weather packets the latest 10 day(s).
| Time | Temp. | Humidity | Pressure | Rain* | Wind** | Luminosity | Snow |
|---|---|---|---|---|---|---|---|
| 1778195538 | 15° C | 60% | 1008.7 hPa | 0 mm | - | - | - |
| 1778195240 | 15.56° C | 58% | 1008.6 hPa | 0 mm | - | - | - |
| 1778194939 | 15.56° C | 56% | 1008.4 hPa | 0 mm | - | - | - |
| 1778194638 | 16.11° C | 52% | 1008.4 hPa | 0 mm | - | - | - |
| 1778194338 | 16.67° C | 44% | 1008.3 hPa | 0 mm | - | - | - |
| 1778194039 | 16.67° C | 46% | 1008.2 hPa | 0 mm | - | - | - |
| 1778193739 | 16.67° C | 45% | 1008.3 hPa | 0 mm | - | - | - |
| 1778193439 | 16.67° C | 45% | 1008.2 hPa | 0 mm | - | - | - |
| 1778193139 | 16.67° C | 47% | 1008.2 hPa | 0 mm | - | - | - |
| 1778192839 | 16.67° C | 46% | 1008.2 hPa | 0 mm | - | - | - |
| 1778192539 | 16.67° C | 44% | 1008.2 hPa | 0 mm | - | - | - |
| 1778192239 | 16.67° C | 45% | 1008.2 hPa | 0 mm | - | - | - |
| 1778191939 | 17.22° C | 46% | 1008.2 hPa | 0 mm | - | - | - |
| 1778191639 | 17.22° C | 43% | 1008.1 hPa | 0 mm | - | - | - |
| 1778191339 | 17.22° C | 48% | 1008.1 hPa | 0 mm | - | - | - |
| 1778191039 | 17.22° C | 47% | 1008.2 hPa | 0 mm | - | - | - |
| 1778190739 | 17.22° C | 43% | 1008.2 hPa | 0 mm | - | - | - |
| 1778190439 | 17.22° C | 43% | 1008.2 hPa | 0 mm | - | - | - |
| 1778190140 | 17.22° C | 45% | 1008.3 hPa | 0 mm | - | - | - |
| 1778189839 | 17.22° C | 41% | 1008.3 hPa | 0 mm | - | - | - |
| 1778189539 | 17.22° C | 45% | 1008.4 hPa | 0 mm | - | - | - |
| 1778189239 | 17.22° C | 43% | 1008.4 hPa | 0 mm | - | - | - |
| 1778188940 | 17.22° C | 46% | 1008.4 hPa | 0 mm | - | - | - |
| 1778188639 | 17.22° C | 42% | 1008.3 hPa | 0 mm | - | - | - |
| 1778188339 | 17.22° C | 46% | 1008.5 hPa | 0 mm | - | - | - |
* Rain latest hour (hover to see other rain measurements)
** Current wind speed in m/s (hover to see current wind gust speed)